Regional Weather Roundup
Issued by NWS

Home | Current Version | Previous Version | Text Only | Print | Product List | Glossary On
Versions: 1 2 3 4 5 6 7 8 9 10 11 12 13 14 15 16 17 18 19 20 21 22 23 24 25 26 27 28 29 30 31 32 33 34 35 36 37 38 39 40 41 42 43 44 45 46 47 48 49 50
000
ASUS44 KFWD 010701
RWRTX
NORTH TEXAS HOURLY WEATHER ROUNDUP
NATIONAL WEATHER SERVICE FORT WORTH TX
ISSUED BY NATIONAL WEATHER SERVICE TULSA OK
200 AM CDT WED OCT 01 2014

NOTE: "FAIR" INDICATES FEW OR NO CLOUDS BELOW 12,000 FEET WITH NO
SIGNIFICANT WEATHER AND/OR OBSTRUCTIONS TO VISIBILITY.

TXZ118-119-010800-
DALLAS/FORT WORTH METROPLEX

CITY           SKY/WX    TMP DP  RH WIND       PRES   REMARKS
DFW AIRPORT    CLEAR     78  68  71 S9        29.78R
DALLAS LOVE    PTCLDY    78  68  71 S9        29.79R
FTW MEACHAM    CLEAR     78  66  66 S9        29.77S
DAL-EXECUTIVE  CLEAR     77  68  73 S6        29.79R
FTW-ALLIANCE   PTCLDY    77  66  68 S8        29.77S
FTW-NAS-JRB    CLEAR     80  64  58 S8        29.82R
ARLINGTON      CLEAR     77  68  73 SE8       29.79R
GRAND PRAIRIE  CLEAR     77  67  71 S3        29.80S
ADDISON        CLEAR     78  67  69 S8        29.81S
MESQUITE       SUNNY     74  68  82 S5        29.80R
$$

TXZ091>094-102>105-117-120-121-131>134-010800-
NORTH CENTRAL TEXAS

CITY           SKY/WX    TMP DP  RH WIND       PRES   REMARKS
SHRMAN/DENISON SUNNY     76  67  73 SE10      29.80S
BRIDGEPORT     SUNNY     76  61  59 S8        29.78S
DENTON         PTCLDY    76  68  76 SE9       29.77F
MCKINNEY       CLEAR     73  67  81 SE5       29.79R
GREENVILLE     CLEAR     73  68  83 SE5       29.81R
TERRELL        CLEAR     75  69  81 S5        29.80R
WAXAHACHIE     SUNNY     74  69  83 SE5       29.81R
CLEBURNE       SUNNY     73  68  83 S5        29.82R
GRANBURY       SUNNY     78  66  66 SE8       29.79F
$$

TXZ083>090-098>101-113>116-127>130-139>142-154-155-010800-
WESTERN NORTH TEXAS

CITY           SKY/WX    TMP DP  RH WIND       PRES   REMARKS
WICHITA FALLS  NOT AVBL
WF-KICKAPOO    CLOUDY    75  56  51 S7        29.75R
ABILENE        NOT AVBL
ABILENE-DYESS  CLEAR     76  61  59 S21       29.75F
MINERAL WELLS  CLEAR     71  60  68 SE9       29.76S
STEPHENVILLE   CLEAR     72  64  73 SE3       29.83S
COMANCHE       SUNNY     71  62  71 S5        29.81S
COLEMAN        CLEAR     72  60  67 S6        29.81S
$$

TXZ143>147-156>162-174-175-010800-
CENTRAL TEXAS

CITY           SKY/WX    TMP DP  RH WIND       PRES   REMARKS
WACO           CLEAR     76  70  82 S13       29.79R
WACO-MCGREGOR  CLEAR     75  64  69 S9        29.81R
CORSICANA      CLEAR     75  69  81 S7        29.81R
HEARNE         SUNNY     73  70  92 SE6       29.81R
TEMPLE         CLEAR     73  66  78 S13       29.79S
KILLEEN GRAY   CLEAR     75  70  83 S7        29.80S
KILLEEN-SKYLRK CLEAR    N/A N/A N/A S10       29.78S
HAMILTON       SUNNY     72  64  78 S13       29.82S
LAMPASAS       SUNNY     73  70  89 CALM      29.81R
$$

TXZ095>097-106>112-122>126-135>138-148>153-164>167-010800-
EAST TEXAS

CITY           SKY/WX    TMP DP  RH WIND       PRES   REMARKS
PARIS          CLEAR     70  61  73 E7        29.82R
MOUNT PLEASANT SUNNY     72  68  89 CALM      29.83R
MINEOLA        SUNNY     73  72  94 SE3       29.81S
TYLER          CLEAR     75  70  84 S7        29.81S
LONGVIEW       CLEAR     74  69  85 S5        29.81S
PALESTINE      SUNNY     74  72  93 SE3       29.82S
HENDERSON      SUNNY     72  70  94 CALM      29.83S
NACOGDOCHES    CLEAR     72  70  94 SE5       29.83S
LUFKIN         CLOUDY    76  72  87 SE3       29.82S
$$

SUPPLEMENTAL OBSERVATIONS (CENTRAL)

CITY           SKY/WX    TMP DP  RH WIND       PRES   REMARKS
$$

SUPPLEMENTAL OBSERVATIONS (WEST)

CITY           SKY/WX    TMP DP  RH WIND       PRES   REMARKS
$$

SUPPLEMENTAL OBSERVATIONS (EAST)

CITY           SKY/WX    TMP DP  RH WIND       PRES   REMARKS
$$

SUPPLEMENTAL OBSERVATIONS ARE A COLLECTION OF AUTOMATED INSTRUMENTS
THAT ARE MAINTAINED BY A VARIETY OF FEDERAL AND STATE AGENCIES.
CERTAIN ELEMENTS...SUCH AS HUMIDITY VALUES AND SUSTAINED WIND
SPEEDS...MAY BE ESTIMATED.




USA.gov is the U.S. government's official web portal to all federal, state and local government web resources and services.